Location: *
(45.5667°S, 177.5167°W)
Time: 16:06:48
(UTC+00:00)

Orbus 7S? - Pass Details

Date: 29 May 2022
Orbit: 340 x 6374 km, 56.9° (Epoch: 04 July)

Event Time Altitude Azimuth Distance (km) Brightness Sun altitude
Rises 05:20:02 0° 235° (SW) 3,812 8.1 -10.7°
Reaches altitude 10° 05:23:51 10° 222° (SW) 2,179 6.7 -11.3°
Maximum altitude 05:27:24 23° 167° (SSE) 1,060 4.5 -11.9°
Enters shadow 05:28:38 18° 132° (SE) 1,111 4.3 -12.1°
